Dewpoint
28 29 27 27 28 29 31 30 26 22 24 25 26 28 30 35 36 36 35 34 34 36 41 42 40 38 37 35 35 35 35 35 35 34 31 31 32 34 34 35 35 36 34 33
23 24 23 21 22 23 25 27 29 29 27 29 30 30 36 36 36 36 33 33 38 43 41 38 37 35 33 31 30 30 29 28 29 28 28 29 29 29 30 30 31 31 31 36
20 25 25 24 25 25 25 24 23 23 24 27 30 33 36 37 36 35 32 39 41 39 38 37 35 31 28 26 26 25 24 25 22 23 24 24 24 25 26 25 25 24 30 28
24 26 22 26 29 28 27 29 28 28 28 31 34 37 36 36 36 34 39 39 38 36 34 33 28 26 25 24 23 20 23 16 16 18 18 19 19 20 20 21 20 20 23 22
26 26 27 29 30 30 29 29 31 31 33 37 35 34 34 37 38 39 39 38 36 33 31 27 24 23 20 19 17 14 14 11 12 13 13 14 15 15 16 16 18 16 16 21
24 22 24 29 31 32 31 26 35 35 35 37 36 32 33 38 39 39 37 35 32 30 28 23 20 17 13 12 8 8 11 12 12 12 13 12 12 12 13 14 14 15 12 14
28 26 28 32 32 33 26 26 36 38 37 39 36 36 36 38 37 36 34 31 29 27 23 19 15 10 7 8 8 9 13 13 13 13 12 12 12 11 12 13 13 13 12 13
29 26 24 34 33 31 32 35 36 36 38 35 37 38 38 37 36 35 33 28 24 22 19 14 9 8 7 7 9 11 13 13 13 13 13 13 12 13 13 14 13 12 12 16
32 30 34 34 34 34 35 34 35 34 35 34 36 37 36 36 35 33 29 23 18 16 14 10 10 9 8 9 11 12 13 13 13 14 14 13 14 14 14 14 14 13 16 17
32 33 34 35 34 34 34 34 36 36 36 36 35 36 36 37 35 34 26 19 16 15 11 10 10 10 10 11 12 14 13 14 14 14 15 15 16 16 15 15 16 17 19 22
33 34 34 34 34 35 35 35 35 34 34 34 35 35 35 36 35 28 20 16 14 12 12 11 11 11 12 12 14 14 14 14 14 15 15 15 16 16 16 17 21 21 23 23
32 35 34 34 35 36 35 35 35 33 33 35 35 36 36 34 24 18 14 15 14 13 13 12 12 12 13 15 16 16 14 15 16 16 16 17 16 15 22 25 27 27 27 26
35 35 34 35 36 35 35 34 34 34 34 35 37 34 29 21 14 14 13 13 13 13 13 14 14 15 15 16 17 16 16 15 16 17 15 15 16 18 19 22 26 26 27 26
36 36 35 35 34 33 34 36 37 36 36 36 32 25 17 13 12 12 12 13 13 13 14 15 15 15 16 16 16 17 17 22 18 17 18 18 19 21 21 20 20 21 24 25
36 36 35 34 33 34 35 35 34 34 33 29 25 18 13 12 12 13 14 13 13 14 15 15 15 15 16 17 16 16 16 17 17 19 20 22 21 21 21 21 20 20 21 23
32 31 29 32 34 35 33 33 32 31 29 24 16 12 12 12 13 13 14 14 13 13 14 14 14 15 16 16 17 18 18 21 21 19 20 20 20 21 20 20 20 21 22 22
29 27 32 33 32 35 33 33 33 31 25 13 12 12 12 13 13 13 13 14 14 14 14 15 14 15 16 17 18 18 18 18 22 19 20 21 20 20 20 21 23 22 21 23
31 30 31 33 32 34 33 32 26 16 14 13 12 12 12 12 12 12 13 14 14 14 14 15 15 16 18 18 19 18 19 19 19 20 20 20 20 20 20 20 22 21 20 21
29 30 29 31 32 32 28 17 16 13 12 12 12 12 13 13 13 13 13 13 13 13 12 13 19 20 18 19 21 19 19 18 18 19 20 21 20 21 22 22 20 20 20 20
22 20 23 29 29 25 18 15 13 10 11 13 13 13 12 12 13 13 14 13 14 14 15 16 17 17 17 18 21 19 19 19 21 21 20 20 20 20 20 21 20 20 18 18
22 18 13 13 11 11 12 10 11 11 13 13 13 12 12 13 14 14 13 12 13 15 16 19 16 16 16 18 20 20 20 20 20 20 20 20 20 21 21 20 18 17 18 18
23 18 13 12 11 11 13 13 13 14 14 13 13 13 12 13 13 14 15 14 14 20 17 16 16 18 18 22 19 20 20 20 20 20 20 19 19 18 18 18 17 18 19 19
25 19 15 13 11 12 13 15 15 14 14 13 13 12 13 13 14 13 12 13 15 17 16 15 18 21 22 19 19 18 17 16 16 16 17 17 17 18 18 18 19 19 19 19
26 21 15 14 14 15 15 15 16 15 14 15 16 16 15 14 14 15 15 18 18 17 16 16 18 22 22 16 15 14 14 15 15 17 17 20 18 18 19 19 20 20 20 20
23 18 16 15 16 16 16 17 15 13 13 13 12 13 13 15 14 13 13 14 18 17 14 18 19 19 14 13 13 14 14 16 17 18 19 21 20 20 21 21 21 21 21 21
21 20 18 18 18 17 15 13 12 13 13 13 13 13 13 13 13 14 14 15 13 14 12 11 12 13 13 13 14 14 15 16 16 16 18 19 20 20 20 19 20 20 19 17
19 20 16 16 14 14 13 13 13 13 12 12 12 13 13 13 12 13 13 10 9 9 10 11 13 14 14 14 14 14 15 15 17 17 18 20 20 21 20 20 21 20 19 17
Lifted_Index
3 4 4 4 5 5 5 5 4 4 4 5 7 7 7 7 7 7 7 7 8 8 9 10 11 12 13 14 14 15 15 15 15 15 16 16 17 17 16 15 14 13 12 12
4 4 4 4 4 4 4 4 4 4 4 5 6 7 7 7 7 7 7 8 8 8 9 10 12 13 13 14 14 15 15 16 16 17 17 18 18 17 17 15 14 13 12 12
4 4 4 3 3 4 4 4 4 5 5 6 6 7 7 7 7 8 8 8 8 9 9 11 12 12 13 14 15 16 17 18 18 18 18 18 18 17 16 15 15 14 13 13
3 3 3 3 3 4 4 5 5 6 7 7 7 7 8 8 8 8 8 8 8 9 10 11 12 12 13 14 16 17 18 18 18 18 17 17 16 16 16 15 15 15 14 14
3 2 2 3 4 5 5 6 6 7 7 7 7 8 8 8 8 8 8 8 8 9 10 11 12 12 13 15 17 18 17 17 17 16 16 15 15 15 15 15 15 15 15 14
3 2 3 4 6 6 6 6 7 7 7 7 7 7 7 8 8 8 8 8 9 9 10 11 12 13 14 16 17 17 16 16 16 15 15 15 15 15 15 15 15 15 15 15
4 3 3 5 6 6 6 6 7 7 7 7 7 8 8 8 8 8 9 9 10 10 11 12 13 14 15 16 16 16 15 15 15 15 15 15 15 15 15 15 15 15 15 14
5 4 4 5 6 7 7 7 7 8 8 8 8 8 9 9 9 9 9 10 10 11 11 13 14 15 15 15 15 15 15 14 14 15 15 15 15 15 15 15 14 14 14 14
6 5 5 6 7 7 7 8 8 8 8 8 9 9 9 10 10 10 10 10 10 11 11 13 15 15 15 15 15 15 14 14 14 15 15 15 15 15 14 14 14 14 14 14
6 6 6 6 7 7 7 8 8 8 8 9 9 10 10 10 10 10 10 11 11 11 12 14 15 15 15 15 15 14 14 14 14 14 15 15 15 15 14 14 14 14 14 14
6 6 7 7 7 8 8 8 8 9 9 9 10 10 10 11 11 11 11 11 12 12 13 14 14 14 14 15 14 14 14 14 14 15 15 15 15 15 14 14 14 13 13 13
6 7 7 8 8 8 8 9 9 9 10 10 10 11 11 11 11 11 12 13 13 14 14 14 14 14 14 14 14 14 14 14 14 15 15 15 15 14 14 13 13 12 12 12
7 8 8 9 9 9 9 9 9 10 10 10 11 11 11 12 12 13 14 15 14 14 13 13 13 13 14 15 15 15 14 15 15 15 15 14 14 13 13 13 12 11 11 10
8 9 9 9 9 9 10 10 10 10 10 11 11 11 12 12 13 14 15 15 14 13 13 13 13 14 14 15 15 15 15 15 15 15 14 13 13 12 12 12 11 11 10 10
9 9 9 9 10 10 10 11 11 11 11 11 12 12 13 14 15 15 14 14 13 13 13 13 14 14 15 15 15 15 15 15 15 14 13 12 12 11 11 11 11 11 11 11
9 9 9 10 10 11 11 11 11 11 11 12 13 14 15 15 14 14 13 13 12 12 13 13 14 15 15 16 15 15 15 14 14 13 12 12 11 11 11 11 11 11 11 12
9 10 10 10 11 11 12 12 12 11 12 13 14 15 15 14 13 13 12 12 12 12 13 14 15 15 15 15 15 15 14 14 13 13 12 12 12 12 12 12 12 12 12 12
10 10 10 11 11 11 12 12 11 12 12 14 14 14 13 13 12 12 12 12 12 13 14 14 15 15 15 15 15 14 14 13 13 13 13 13 13 13 13 13 13 13 13 13
10 10 10 11 11 11 11 11 11 12 13 14 13 13 13 12 12 12 12 12 12 13 14 15 15 15 14 14 14 14 14 14 13 13 13 13 13 13 13 13 14 14 14 14
10 10 10 11 11 11 11 12 12 13 13 13 13 12 12 12 12 12 12 12 13 14 15 15 15 14 14 14 14 14 14 14 14 14 14 13 13 13 13 14 14 14 15 15
10 10 10 11 11 11 12 13 13 13 13 12 12 12 12 12 12 12 12 12 14 15 16 15 15 15 15 15 14 14 14 14 14 14 14 13 13 14 14 14 15 15 16 16
9 10 11 12 12 12 12 13 13 12 12 12 12 12 12 12 12 12 13 14 15 16 16 15 15 15 15 15 14 14 14 14 14 14 14 13 14 14 15 15 15 16 16 16
9 10 11 12 12 11 11 11 12 12 12 12 12 12 11 12 12 13 14 15 16 16 16 15 15 15 15 15 14 14 14 14 14 13 13 14 14 15 15 16 16 16 17 17
9 11 12 12 11 10 9 10 11 11 11 11 12 12 12 12 13 14 15 16 16 16 16 15 15 15 15 15 14 14 14 14 13 14 14 14 15 15 16 16 16 17 16 16
10 11 11 11 10 9 9 9 10 10 11 11 12 12 13 14 14 15 16 16 16 16 15 14 14 14 14 14 14 14 13 13 14 14 14 15 15 15 16 16 17 16 16 16
10 10 10 9 9 9 9 9 9 10 11 11 12 13 14 15 15 16 16 16 16 15 14 14 14 14 14 14 14 13 13 13 13 14 14 14 15 15 16 16 16 16 16 16
9 9 8 8 9 9 9 10 10 10 11 11 12 13 14 15 16 16 16 16 15 15 14 14 14 14 14 14 14 13 13 13 13 13 14 14 14 15 15 16 16 16 16 16